Theta_e
321 324 324 326 328 331 335 338 342 347 347 345 345 352 355 360 363 361 358 352 350 354 355 355 353 357 346 345 342 341 334 334 330 337 337 341 339 337 337 338 338 339 337
318 319 322 325 325 330 331 334 339 342 345 346 345 344 350 353 358 355 353 348 351 352 353 350 351 347 351 353 344 348 338 348 334 339 337 335 334 338 337 336 334 335 339
315 316 319 325 325 329 332 333 334 339 343 343 343 344 348 351 354 355 352 350 354 353 351 351 350 349 350 349 345 341 337 338 336 332 335 339 334 338 334 335 335 335 336
313 312 315 321 324 326 329 331 334 335 342 341 344 343 347 351 352 352 351 353 355 353 354 351 347 348 347 346 345 343 342 339 337 338 336 334 332 336 333 330 326 333 331
312 311 313 319 320 323 327 330 332 335 344 340 341 345 348 350 348 351 353 354 355 353 353 348 350 344 333 339 339 343 342 336 334 335 333 334 330 329 329 331 327 329 329
311 310 312 314 316 321 326 330 330 333 344 341 341 343 347 347 322 323 343 354 354 351 349 347 346 333 329 323 320 318 330 340 336 337 334 330 333 332 336 331 327 323 322
311 310 312 313 313 318 323 326 329 334 343 343 345 347 350 353 312 314 321 355 352 350 347 347 342 339 333 338 317 315 316 316 320 338 335 334 327 334 333 331 332 325 329
310 310 310 309 312 317 321 325 331 334 341 343 347 352 353 350 310 312 318 354 351 348 348 346 344 341 337 336 335 333 334 335 333 333 337 337 338 338 334 335 335 332 331
308 308 307 307 308 316 321 326 330 336 340 344 348 350 350 341 307 311 328 349 346 345 344 343 342 339 316 311 336 334 333 330 311 307 307 307 307 308 319 331 330 327 323
308 308 307 309 312 317 321 323 329 334 340 346 348 349 337 342 304 310 329 343 342 340 342 337 310 329 304 307 336 334 329 331 330 329 328 319 315 314 311 332 328 326 324
307 308 309 311 314 320 322 320 328 331 341 344 345 347 349 339 326 310 307 342 338 336 334 335 334 303 301 301 306 335 329 329 321 328 327 326 328 326 326 329 330 326 320
310 312 313 316 318 321 319 318 321 330 336 342 342 341 343 340 317 303 304 314 321 335 331 333 322 299 298 300 310 301 303 315 325 323 322 323 322 325 326 330 330 328 328
312 313 313 315 315 315 316 316 321 332 332 334 335 332 331 335 328 302 304 304 308 334 334 311 300 297 298 304 299 299 304 326 323 322 320 319 320 323 325 327 330 328 327
311 313 312 311 313 319 316 320 330 331 330 332 331 328 329 331 329 332 326 324 312 320 311 321 314 312 310 315 314 312 326 326 322 324 323 324 323 322 322 326 325 326 324
311 312 312 314 313 314 318 328 332 333 332 336 337 334 332 329 331 323 326 332 333 323 324 325 323 323 322 322 323 324 325 325 325 325 325 322 321 320 322 326 325 327 323
312 314 315 320 320 321 318 311 298 301 302 305 313 326 331 313 303 301 298 300 303 305 325 325 321 321 322 321 322 326 326 321 324 325 324 322 322 320 324 325 325 324 322
317 314 316 319 321 322 321 318 314 307 300 298 302 305 308 306 297 296 297 298 299 305 326 323 320 320 322 324 325 326 323 326 326 324 323 323 323 322 320 321 321 322 324
316 306 315 323 323 323 324 326 327 325 322 319 299 303 297 297 296 295 297 305 319 317 326 323 322 321 323 323 325 326 324 325 325 325 324 324 322 320 319 320 323 322 323
317 318 323 325 326 324 328 329 328 327 323 315 311 302 297 294 294 296 301 326 323 324 325 323 323 323 323 325 327 325 325 324 323 324 323 322 322 320 320 321 321 304 309
319 308 313 327 328 330 326 329 328 325 324 323 317 310 307 310 314 318 323 324 324 325 325 323 322 322 322 327 326 327 326 324 324 323 323 323 324 322 320 320 321 320 321
321 321 306 328 329 328 328 328 327 327 325 322 318 314 301 322 320 322 324 322 325 324 325 325 323 325 326 328 327 324 326 324 324 324 324 324 323 321 321 323 320 321 321
323 324 327 328 329 329 330 329 328 326 324 322 323 318 294 324 322 322 322 326 327 325 325 326 327 327 328 328 326 325 324 324 325 324 324 324 323 321 321 321 320 319 319
326 326 327 329 329 316 327 329 327 323 323 322 322 322 324 325 322 319 317 319 319 317 317 322 322 327 330 330 330 327 325 325 325 326 324 323 323 324 324 324 321 320 320
328 328 328 329 329 328 328 325 323 314 323 324 324 322 318 318 315 312 311 308 307 304 305 307 309 311 326 327 328 327 321 326 328 327 327 325 324 321 324 323 320 316 318
327 328 326 327 326 325 325 323 323 322 321 319 319 316 313 307 304 304 305 303 302 301 300 301 305 306 309 319 319 317 294 291 315 306 322 319 315 316 311 307 306 306 307
331 328 327 325 323 322 321 321 318 317 314 313 313 313 307 299 298 298 300 299 297 296 295 296 298 298 297 299 295 289 288 291 304 294 310 308 305 303 302 301 300 299 300
Wind_Speed
10 10 10 10 13 13 12 12 14 13 14 16 17 14 15 16 14 13 12 13 14 13 12 12 13 12 9 6 4 9 8 7 2 1 6 6 4 3 3 4 5 7 7
13 13 13 11 13 13 12 15 14 16 14 16 16 16 16 15 14 15 16 15 15 15 13 11 14 10 11 7 5 7 8 2 6 4 3 5 4 6 6 6 3 5 3
13 15 15 15 13 14 13 15 16 17 16 17 17 17 18 18 18 18 17 16 15 14 13 13 13 13 11 7 9 7 8 6 6 7 5 4 5 6 3 4 2 1 2
12 15 16 16 16 16 15 16 16 18 18 17 17 18 18 18 18 19 18 16 14 13 13 13 13 14 12 10 9 7 6 5 5 1 3 5 5 6 5 5 3 3 1
17 17 18 17 17 19 18 17 17 19 18 18 18 18 18 17 15 18 17 15 13 13 13 13 12 11 10 11 8 8 8 7 4 5 5 5 6 6 7 5 5 4 2
18 19 19 20 20 20 19 18 17 20 20 18 18 19 19 14 17 17 15 13 14 14 12 13 9 10 9 9 9 10 1 6 8 5 3 5 8 6 3 6 5 5 3
20 21 20 20 22 21 20 19 19 19 18 18 19 19 19 19 20 18 14 13 14 13 12 11 11 10 10 10 7 6 6 7 3 5 7 6 4 8 6 6 7 8 4
21 21 19 21 21 20 18 19 19 18 18 17 19 20 18 13 18 19 17 15 12 12 12 13 11 10 12 11 11 9 9 9 8 6 7 5 4 5 8 6 6 3 6
22 20 18 20 21 22 17 19 16 17 17 18 18 19 19 14 16 20 18 15 11 13 13 13 11 11 13 6 9 8 7 6 7 9 10 7 2 1 3 4 4 6 4
23 15 17 17 19 17 19 19 18 15 18 15 17 18 17 16 14 21 16 12 13 12 11 9 11 5 13 11 9 8 5 7 6 5 5 5 4 4 8 5 5 5 4
16 16 19 19 20 18 19 15 16 15 17 18 19 17 16 17 17 20 13 13 12 11 10 9 7 12 11 10 2 6 6 7 5 4 4 4 4 6 4 3 4 7 3
21 19 18 19 16 14 17 15 13 19 19 18 17 14 11 15 15 7 7 4 12 9 8 7 10 13 9 10 7 11 12 9 6 5 3 3 3 4 5 5 4 3 2
21 17 16 19 17 18 16 13 16 20 14 12 12 11 11 12 11 7 14 13 12 7 7 13 17 12 11 8 8 10 10 7 7 5 4 3 2 3 2 1 4 6 7
19 14 16 17 18 10 8 13 15 11 12 11 12 11 13 13 12 10 9 11 15 13 15 11 9 8 3 9 6 5 6 6 5 7 6 6 4 5 4 4 6 5 4
17 15 17 24 33 21 15 12 13 11 11 14 14 15 15 14 11 12 11 11 10 11 12 10 8 8 7 7 7 7 6 7 5 3 7 7 5 4 6 7 6 6 6
16 9 12 6 5 12 12 11 21 12 14 16 14 13 12 17 15 13 12 16 21 17 9 9 7 7 8 8 8 9 9 8 7 6 6 6 7 5 6 6 5 5 6
11 11 11 5 7 9 11 13 14 14 23 18 11 16 15 17 20 17 17 19 17 11 5 8 7 8 7 8 6 8 7 7 7 6 6 6 7 6 5 5 5 5 5
8 10 8 2 6 9 11 13 14 14 14 11 15 11 19 20 19 17 17 15 8 3 5 8 7 8 7 7 7 6 4 6 6 6 6 7 6 5 4 4 5 6 4
5 5 4 5 9 11 10 12 13 15 13 11 10 12 12 15 15 15 13 9 9 6 6 7 7 9 8 5 7 6 6 7 7 7 6 7 7 6 6 6 5 2 3
6 6 4 7 9 13 7 10 13 14 14 13 11 8 6 8 6 7 5 6 7 6 7 7 7 6 6 7 6 5 6 8 7 6 6 7 6 6 6 6 4 4 6
3 2 4 8 9 10 10 10 14 13 14 13 10 10 10 11 10 9 7 6 6 8 7 8 8 7 8 8 8 6 6 6 6 5 5 6 6 5 5 4 4 3 2
5 5 7 9 10 11 12 12 13 12 14 13 11 10 3 9 9 8 7 7 7 7 4 6 6 7 7 7 8 6 7 6 6 6 4 4 5 4 5 4 3 4 4
12 11 9 9 9 11 9 11 12 12 14 13 14 11 8 10 9 9 8 8 8 6 5 5 5 3 4 2 3 5 5 6 4 4 4 3 5 6 4 2 1 1 3
12 12 12 12 12 10 11 11 9 13 15 13 11 9 9 11 10 10 8 7 8 7 7 6 6 6 4 6 6 7 7 6 4 4 4 2 1 1 3 3 3 2 1
12 10 10 10 10 11 11 11 11 15 13 10 10 10 12 10 9 9 8 8 8 8 10 7 6 9 10 13 10 8 6 7 8 7 7 8 8 9 7 6 6 6 8
12 12 13 10 10 10 10 11 11 11 12 11 11 10 13 10 10 8 7 10 9 9 10 8 12 15 13 11 11 9 9 11 11 10 8 7 8 7 7 9 11 7 8
Wind_Direction
285 284 272 272 273 275 270 267 277 251 245 248 250 246 227 219 208 199 205 197 196 203 199 194 204 223 207 185 221 232 242 246 272 135 145 121 137 206 233 255 269 246 183
283 288 291 281 275 269 268 271 269 270 255 248 236 236 230 220 207 200 203 199 198 199 195 202 202 207 218 202 220 227 241 195 249 243 148 149 207 203 213 217 240 294 236
298 290 290 286 278 272 268 271 272 269 259 251 241 227 215 219 203 202 201 210 192 197 184 205 204 202 198 191 235 213 213 243 222 250 185 212 181 178 163 202 196 260 102
293 294 286 284 284 277 268 270 271 270 260 247 237 232 222 211 206 199 200 205 186 190 192 197 203 205 193 195 213 223 225 224 228 335 170 179 198 172 213 189 197 189 156
291 292 287 280 276 275 269 263 267 269 263 244 239 224 224 212 202 196 198 192 178 189 184 194 203 203 181 203 210 201 222 225 209 229 198 209 192 200 206 195 190 188 86
285 289 286 277 272 266 262 263 264 264 258 240 235 223 219 212 186 176 191 173 183 181 180 192 170 124 121 114 103 65 40 206 225 230 214 208 204 208 207 188 179 180 192
281 286 279 275 272 261 259 262 261 261 253 233 232 227 210 204 160 164 153 170 177 176 176 185 178 180 173 189 119 122 128 116 117 257 245 231 232 201 198 206 186 199 219
283 282 277 280 273 265 257 252 254 262 244 230 224 218 201 176 161 146 156 167 172 171 177 182 193 165 184 193 189 204 218 207 211 230 241 273 265 182 197 204 196 97 90
285 281 274 264 267 264 256 252 254 257 233 223 218 202 191 155 156 148 165 163 164 172 177 187 195 184 162 170 198 197 211 142 86 78 67 50 122 96 158 166 171 174 157
273 273 270 271 266 265 262 264 258 267 232 212 205 195 171 159 169 156 175 161 159 172 175 143 69 189 145 159 208 193 193 175 173 181 146 127 137 132 157 178 178 199 157
283 264 259 263 265 257 257 262 258 268 221 202 194 178 157 158 174 164 194 155 168 167 177 156 151 128 141 151 197 191 206 149 126 182 156 154 162 159 185 222 231 175 144
272 260 254 261 266 261 258 259 252 259 205 189 179 159 146 160 157 135 120 117 164 170 159 144 120 128 130 141 171 116 117 131 150 148 141 147 139 166 182 195 190 156 163
273 268 271 269 266 255 235 250 275 200 174 157 142 132 138 149 142 144 105 98 72 131 93 92 113 117 124 114 125 130 146 165 161 166 161 155 143 143 140 303 165 181 194
278 274 274 271 263 220 222 265 194 157 152 138 142 140 148 143 150 136 122 108 101 99 110 108 111 124 174 119 121 157 183 169 185 186 187 172 154 165 174 225 193 200 208
268 268 258 243 242 256 241 173 147 148 160 161 148 154 145 147 157 149 153 153 152 126 119 133 142 151 146 156 165 175 190 181 185 166 167 160 162 176 202 196 215 216 220
276 283 291 84 141 112 102 87 50 71 71 93 106 146 134 125 132 118 99 107 114 133 158 147 156 156 166 164 172 176 175 179 182 177 168 175 178 201 202 181 208 215 246
301 309 320 57 102 116 110 106 104 71 71 61 96 114 122 133 114 111 118 121 134 140 164 135 165 159 168 170 188 167 168 163 151 151 159 168 171 174 197 191 216 219 241
295 289 306 69 96 104 115 127 128 123 112 93 40 93 107 111 111 119 122 117 132 198 152 147 160 158 176 172 200 157 146 153 158 154 163 160 165 177 196 240 218 207 214
247 280 251 132 127 113 124 129 121 123 110 108 96 68 71 87 112 129 149 148 166 159 143 157 162 165 172 196 184 158 171 151 158 165 161 164 170 178 193 205 219 269 169
244 247 199 145 133 131 118 123 123 120 125 120 118 122 125 117 119 144 173 152 168 145 148 154 154 152 177 189 159 164 141 157 161 165 165 170 177 175 191 222 218 204 205
208 153 180 140 145 132 133 148 133 134 129 122 127 141 144 135 143 160 143 149 161 158 157 159 155 162 188 180 176 178 163 172 175 167 170 170 172 183 219 185 211 225 246
233 169 172 150 145 147 147 135 126 119 122 129 135 145 58 146 148 144 155 162 147 144 150 146 165 180 175 178 173 165 180 170 167 156 168 175 167 189 201 206 205 203 218
197 183 165 148 135 123 123 130 121 118 118 136 139 142 149 106 95 86 83 80 74 76 63 70 58 125 128 181 193 168 178 157 145 148 156 169 181 209 208 179 92 9 298
170 171 146 139 138 131 130 117 114 120 131 124 111 103 97 95 92 86 81 79 71 63 57 57 56 38 59 100 74 52 33 34 110 152 143 168 166 109 87 28 41 8 224
149 135 135 121 121 115 115 123 129 124 123 109 112 104 97 94 90 82 79 76 70 67 56 46 47 49 29 45 52 57 31 43 66 70 66 73 67 69 69 72 60 48 53
136 123 116 113 121 119 116 109 108 113 113 106 102 101 101 96 91 80 77 83 79 71 67 56 56 60 53 49 49 41 42 54 67 66 85 83 83 75 76 76 77 72 66